Flag for Tunisia Weather past 2 weeks in Tunis, Tunisia

Now
77 °F

Clear.


Feels Like: 79 °F
Forecast: 80 / 105 °F
Wind: No wind

Location: Tunis-Carthage

Current Time: Jul 30, 2015 at 3:38:49 AM

Latest Report: Jul 30, 2015 at 3:00 AM


Visibility: 10 mi

Pressure: 29.83 "Hg

Humidity: 74%

Dew point: 68 °F

Location of TunisLocation

Historic Weather in Tunis — Graph

°F

Tunis temperature yesterday

Maximum temperature yesterday: 97 °F (at 11:30 AM)
Minimum temperature yesterday: 77 °F (at 3:30 AM)
Average temperature yesterday: 85 °F

Past Weeks' High & Low Weather Summary

 TemperatureHumidityPressure
High102 °F (Jul 19, 12:30 PM)94% (Jul 22, 3:30 AM)30.04 "Hg (Jul 22, 3:30 AM)
Low70 °F (Jul 21, 5:30 AM)16% (Jul 19, 12:30 PM)29.80 "Hg (Jul 24, 3:30 PM)
Average85 °F58%29.94 "Hg
* Reported Jul 15 2:30 AM — Jul 30 2:30 AM, Tunis, Weather by CustomWeather, © 2015

Note: Actual official high and low records may vary slightly from our data, if they occured in-between our weather recording intervals... More about our weather records

Advertising

Tunis weather history for previous 24 hours

 ConditionsComfort  
Time TempWeatherWind HumidityBarometerVisibility
2:30 AM
Thu, Jul 30
79 °FClear.2 mph74%29.83 "Hg10 mi
2:00 AM79 °FClear.3 mph74%29.86 "Hg10 mi
1:30 AM79 °FClear.3 mph74%29.86 "Hg10 mi
1:00 AM79 °FClear.5 mph79%29.86 "Hg10 mi
12:30 AM81 °FClear.6 mph74%29.86 "Hg10 mi
12:00 AM81 °FClear.3 mph79%29.89 "Hg10 mi
11:30 PM
Wed, Jul 29
81 °FClear.2 mph79%29.89 "Hg10 mi
11:00 PM79 °FClear.No wind84%29.89 "Hg10 mi
10:30 PM77 °FClear.3 mph83%29.89 "Hg10 mi
10:00 PM79 °FClear.No wind79%29.89 "Hg10 mi
9:30 PM79 °FClear.2 mph79%29.89 "Hg10 mi
9:00 PM81 °FPassing clouds.5 mph74%29.86 "HgN/A
8:30 PM81 °FPassing clouds.5 mph74%29.86 "HgN/A
8:00 PM81 °FPassing clouds.6 mph74%29.86 "HgN/A
7:30 PM82 °FClear.8 mph70%29.86 "Hg10 mi
7:00 PM84 °FPassing clouds.8 mph66%29.83 "HgN/A
6:30 PM86 °FPassing clouds.9 mph59%29.83 "HgN/A
6:00 PM88 °FPassing clouds.10 mph59%29.83 "HgN/A
5:30 PM88 °FSunny.13 mph59%29.83 "Hg10 mi
5:00 PM90 °FPassing clouds.13 mph55%29.83 "HgN/A
4:30 PM90 °FPassing clouds.12 mph55%29.86 "HgN/A
4:00 PM91 °FPassing clouds.12 mph52%29.86 "HgN/A
3:30 PM93 °FPassing clouds.10 mph49%29.86 "HgN/A
3:00 PM93 °FPassing clouds.10 mph47%29.86 "HgN/A
2:30 PM95 °FPassing clouds.10 mph47%29.86 "HgN/A
2:00 PM97 °FPassing clouds.9 mph42%29.86 "HgN/A
1:30 PM95 °FPassing clouds.8 mph47%29.86 "HgN/A
1:00 PM97 °FPassing clouds.9 mph44%29.86 "HgN/A
12:00 PM97 °FPassing clouds.8 mph32%29.89 "HgN/A
11:30 AM97 °FPassing clouds.7 mph34%29.89 "HgN/A
11:00 AM95 °FPassing clouds.8 mph34%29.89 "HgN/A
10:30 AM95 °FPassing clouds.9 mph34%29.89 "HgN/A
10:00 AM93 °FPassing clouds.8 mph34%29.89 "HgN/A
9:30 AM91 °FPassing clouds.7 mph36%29.89 "HgN/A
9:00 AM90 °FSunny.6 mph41%29.89 "Hg10 mi
8:30 AM86 °FPassing clouds.5 mph46%29.89 "HgN/A
8:00 AM84 °FPassing clouds.3 mph48%29.89 "HgN/A
7:30 AM82 °FPassing clouds.5 mph55%29.89 "HgN/A
7:00 AM81 °FSunny.6 mph58%29.89 "Hg10 mi
6:30 AM79 °FSunny.5 mph61%29.89 "Hg10 mi
6:00 AM79 °FPassing clouds.No wind61%29.89 "HgN/A
5:30 AM77 °FPassing clouds.3 mph65%29.89 "HgN/A
5:00 AM77 °FPassing clouds.2 mph61%29.89 "HgN/A
4:00 AM77 °FPassing clouds.3 mph65%29.89 "HgN/A
3:30 AM77 °FPassing clouds.3 mph65%29.89 "HgN/A
3:00 AM79 °FClear.No wind61%29.89 "Hg10 mi
Weather by CustomWeather, © 2015

See weather overviewHow to use our weather pages